Simultaneous Nadir Overpasses (SNOs) Predictions

Prediction of SNOs between GOES-16 and NPP Satellite Orbit:

Table of predicted SNOs for the next 14.0 days since TLE Epoch: 3/5/2022
Index Date Time (GOES-16) GOES-16 Lat,Lon NPP Lat,Lon Distance(km) Time Diff (sec)
1 03/05/2022 06:11:12 -0.07, -75.20 -0.82, -71.94 372.06 80
2 03/06/2022 18:33:08 0.07, -75.20 -0.38, -77.24 231.96 80
3 03/07/2022 18:17:04 0.07, -75.20 0.64, -72.71 284.53 80
4 03/09/2022 06:38:51 -0.06, -75.20 0.58, -77.97 316.31 80
5 03/10/2022 06:17:27 -0.06, -75.20 -0.44, -73.44 200.27 80
6 03/11/2022 18:39:23 0.05, -75.21 -0.75, -78.75 403.20 80
7 03/12/2022 18:23:19 0.05, -75.22 0.27, -74.22 113.79 80
8 03/14/2022 06:45:07 -0.04, -75.23 0.88, -79.49 485.88 80
9 03/15/2022 06:23:41 -0.04, -75.23 -0.08, -74.95 31.43 80
10 03/17/2022 18:26:53 0.03, -75.26 -0.08, -75.73 53.54 80
11 03/18/2022 18:10:49 0.03, -75.28 0.94, -71.20 464.28 80
